[[{"header":{"parameterUnit":"m.s-1","parameterCategory":1,"la1":30.2992,"la2":30.254,"lo1":-89.0895,"lo2":-89.0443,"dy":0.0025,"dx":0.0025,"nx":19,"ny":19,"refTime":"2026-05-11T21:00:00:Z","depth":0,"parameterNumber":2,"parameterNumberName":"U-component_of_WINDS"},"data":[0,0,0,-0.787,-0.7865,-0.7604,-0.7602,-0.7322,-0.732,0,0,0,0,0,0,0,0,0,0,0,-0.7981,-0.798,-0.787,-0.7864,-0.7604,-0.7602,-0.7322,-0.732,0,0,0,0,0,0,0,0,0,0,0,-0.7981,-0.798,-0.7979,-0.7864,-0.7604,-0.7602,-0.7323,-0.75,0,0,0,0,0,0,0,0,0,0,-0.7745,-0.788,-0.798,-0.7979,-0.7862,-0.7604,-0.7602,-0.7508,-0.7489,-0.7464,0,-0.7451,0,-0.7381,-0.7305,-0.7304,0,0,0,-0.7839,-0.7896,-0.7795,-0.7979,-0.786,-0.7605,-0.7714,-0.7497,-0.7476,-0.7439,-0.7446,-0.7434,-0.7377,-0.7303,-0.7302,-0.724,-0.7241,0,0,-0.7854,-0.7952,-0.781,-0.7784,-0.7828,-0.7723,-0.7706,-0.7483,-0.7497,-0.7445,-0.7427,-0.7372,-0.7302,-0.73,-0.7239,-0.724,0,0,0,-0.7912,-0.7963,-0.7866,-0.7797,-0.7746,-0.7716,-0.7697,-0.7507,-0.7467,-0.7423,-0.7369,-0.7301,-0.7298,-0.7237,-0.7239,-0.738,0,0,0,-0.7919,-0.7997,-0.7874,-0.7931,-0.7751,-0.7623,-0.7727,-0.7483,-0.7454,-0.737,-0.73,-0.7296,-0.7236,-0.7238,-0.7374,-0.7431,0,0,0,-0.7986,-0.8004,-0.7978,-0.7937,-0.7828,-0.7624,-0.7571,-0.7474,-0.7423,-0.7304,-0.7295,-0.7236,-0.7238,-0.7368,-0.7421,-0.7443,0,0,0,-0.8086,-0.8107,-0.7982,-0.7984,-0.7831,-0.7714,-0.7571,-0.7478,-0.7393,-0.7299,-0.7236,-0.7239,-0.7366,-0.7415,-0.7438,-0.7481,-0.7508,0,0,-0.8167,-0.812,-0.8113,-0.7994,-0.7924,-0.7746,-0.7694,-0.7523,-0.7421,-0.7306,-0.7303,-0.7376,-0.742,-0.7442,-0.762,-0.7643,0,0,0,-0.8172,-0.8169,-0.8129,-0.8053,-0.7923,-0.7815,-0.7641,-0.7577,-0.7474,-0.7383,-0.7385,-0.7409,-0.7418,-0.7434,-0.7452,-0.7454,-0.725,-0.725,-0.725,-0.843,-0.8299,-0.8278,-0.8116,-0.8044,-0.7863,-0.7792,-0.7674,-0.7563,-0.7566,-0.7532,-0.7656,-0.7679,-0.7692,-0.7695,-0.7542,-0.7542,-0.7543,-0.7543,-0.8539,-0.8514,-0.8363,-0.8291,-0.8151,-0.8087,-0.7914,-0.7837,-0.7757,-0.7671,-0.7672,-0.7593,-0.772,-0.7716,-0.7552,-0.7551,-0.755,-0.7549,-0.7548,-0.8695,-0.866,-0.8581,-0.8456,-0.8375,-0.8207,-0.8138,-0.8012,-0.7893,-0.7894,-0.7844,-0.7841,-0.7824,-0.7878,-0.7879,-0.7879,-0.788,-0.788,-0.788,-0.8889,-0.8795,-0.8752,-0.8615,-0.8548,-0.8445,-0.8262,-0.8193,-0.8084,-0.7998,-0.7997,-0.7887,-0.7757,-0.7728,-0.7886,-0.7885,-0.7884,-0.7884,-0.7883,-0.9051,-0.8993,-0.8928,-0.8862,-0.8689,-0.8616,-0.8455,-0.8325,-0.8249,-0.8219,-0.8105,-0.803,-0.7973,-0.7957,-0.7932,-0.8133,-0.8133,-0.8134,-0.8134,-0.9184,-0.9142,-0.9046,-0.8948,-0.8838,-0.8686,-0.8614,-0.8472,-0.8315,-0.8259,-0.8211,-0.8167,-0.8156,-0.8105,-0.8086,-0.8061,-0.8291,-0.8291,-0.8291,-0.9277,-0.9218,-0.9183,-0.9029,-0.8884,-0.8762,-0.8691,-0.8583,-0.8393,-0.8294,-0.8213,-0.8206,-0.8133,-0.8116,-0.802,-0.7994,-0.7945,0,0]},{"header":{"parameterUnit":"m.s-1","parameterCategory":1,"la1":30.2992,"la2":30.254,"lo1":-89.0895,"lo2":-89.0443,"dy":0.0025,"dx":0.0025,"nx":19,"ny":19,"refTime":"2026-05-11T21:00:00:Z","depth":0,"parameterNumber":3,"parameterNumberName":"V-component_of_WINDS"},"data":[0,0,0,-4.7106,-4.7106,-4.7034,-4.7034,-4.6993,-4.6993,0,0,0,0,0,0,0,0,0,0,0,-4.7159,-4.716,-4.7107,-4.7106,-4.7034,-4.7034,-4.6993,-4.6993,0,0,0,0,0,0,0,0,0,0,0,-4.7159,-4.716,-4.7161,-4.7106,-4.7034,-4.7034,-4.6993,-4.7029,0,0,0,0,0,0,0,0,0,0,-4.7089,-4.7169,-4.716,-4.7161,-4.7105,-4.7035,-4.7034,-4.7029,-4.7026,-4.7047,0,-4.7076,0,-4.7034,-4.6994,-4.6994,0,0,0,-4.7082,-4.7172,-4.7124,-4.7161,-4.7105,-4.7035,-4.706,-4.7027,-4.7024,-4.7044,-4.7074,-4.7071,-4.7033,-4.6994,-4.6994,-4.7197,-4.7199,0,0,-4.7086,-4.7164,-4.7127,-4.7124,-4.7139,-4.7062,-4.7058,-4.7024,-4.7063,-4.7074,-4.707,-4.7033,-4.6994,-4.6994,-4.7195,-4.7198,0,0,0,-4.7113,-4.7168,-4.7119,-4.7127,-4.711,-4.7061,-4.7056,-4.7064,-4.7042,-4.7069,-4.7032,-4.6994,-4.6994,-4.7193,-4.7196,-4.7375,0,0,0,-4.7114,-4.7183,-4.7122,-4.7169,-4.7112,-4.7086,-4.7097,-4.7044,-4.7038,-4.7033,-4.6994,-4.6994,-4.7191,-4.7195,-4.7365,-4.7447,0,0,0,-4.7153,-4.7187,-4.7188,-4.7173,-4.7145,-4.7085,-4.706,-4.7041,-4.7017,-4.6994,-4.6994,-4.7189,-4.7194,-4.7356,-4.7432,-4.7524,0,0,0,-4.7217,-4.7348,-4.7192,-4.7324,-4.7147,-4.7197,-4.7059,-4.7092,-4.7094,-4.6994,-4.7191,-4.7196,-4.7354,-4.7423,-4.7515,-4.7616,-4.7665,0,0,-4.7425,-4.7376,-4.7447,-4.7305,-4.7404,-4.7201,-4.7324,-4.7252,-4.7177,-4.7195,-4.7198,-4.7369,-4.7431,-4.7522,-4.7912,-4.7952,0,0,0,-4.7539,-4.7592,-4.76,-4.7606,-4.7554,-4.7516,-4.7416,-4.7389,-4.74,-4.7203,-4.7423,-4.7458,-4.7508,-4.7553,-4.7587,-4.7625,-4.722,-4.7219,-4.7219,-4.7946,-4.7845,-4.7956,-4.7847,-4.7854,-4.775,-4.7746,-4.7691,-4.7586,-4.764,-4.7645,-4.7894,-4.7949,-4.7974,-4.8015,-4.7689,-4.769,-4.769,-4.7691,-4.8243,-4.8301,-4.8159,-4.8216,-4.8108,-4.8154,-4.8058,-4.7983,-4.8009,-4.7882,-4.7921,-4.7792,-4.8021,-4.8051,-4.7703,-4.7701,-4.7699,-4.7698,-4.7697,-4.8499,-4.8509,-4.8474,-4.8472,-4.8481,-4.8364,-4.8397,-4.8296,-4.8202,-4.8241,-4.8235,-4.8231,-4.8216,-4.8245,-4.8246,-4.8247,-4.8247,-4.8248,-4.8248,-4.8778,-4.8733,-4.8773,-4.873,-4.872,-4.8694,-4.8591,-4.8577,-4.8537,-4.8462,-4.8461,-4.8352,-4.8062,-4.7992,-4.8261,-4.8259,-4.8257,-4.8256,-4.8255,-4.9117,-4.9024,-4.9088,-4.9078,-4.9018,-4.9034,-4.8905,-4.8888,-4.8862,-4.8882,-4.8763,-4.8565,-4.8507,-4.8479,-4.842,-4.8784,-4.8784,-4.8784,-4.8784,-4.9334,-4.9294,-4.9336,-4.9328,-4.9308,-4.9198,-4.9271,-4.9192,-4.9094,-4.9072,-4.9004,-4.8917,-4.8894,-4.8849,-4.8813,-4.8757,-4.9199,-4.9199,-4.9199,-4.9536,-4.9491,-4.9574,-4.9478,-4.9424,-4.9379,-4.9445,-4.944,-4.9309,-4.9214,-4.9052,-4.9035,-4.8893,-4.8852,-4.8755,-4.8702,-4.8596,0,0]}]]